Weather History for Clarksburg, WV

Change the Weather History Date:

Thursday, October 4, 2012

  Actual Average Record
Temperature  
Mean Temperature 67 °F -  
Max Temperature 73 °F 69 °F 91 °F (1951)
Min Temperature 59 °F 44 °F 25 °F (1974)
Cooling Degree Days 2    
Growing Degree Days 17 (Base 50)    
Moisture  
Dew Point 57 °F    
Average Humidity 77    
Maximum Humidity 97    
Minimum Humidity 44    
Precipitation  
Precipitation 0.01 in - - ()
Sea Level Pressure  
Sea Level Pressure 30.17 in    
Wind  
Wind Speed 2 mph (West)    
Max Wind Speed 10 mph    
Max Gust Speed 17 mph    
Visibility 9 miles    
Events      
Averages and records for this station are not official NWS values.
T = Trace of Precipitation, MM = Missing Value Source: NWS Daily Summary

Daily Weather History Graph

Daily Weather History Graph

Search for Another Location

Airport:

Trip Planner

Search our weather history database for the weather conditions in past years. The results will help you decide how hot, cold, wet, or windy it might be!

Date:

Astronomy

Oct. 04, 2012 Rise Set
Actual Time 7:20 AM EDT 6:57 PM EDT
Civil Twilight 6:53 AM EDT 7:24 PM EDT
Nautical Twilight 6:22 AM EDT 7:55 PM EDT
Astronomical Twilight 5:51 AM EDT 8:26 PM EDT
Moon 9:34 PM EDT (10/4) 11:34 AM EDT (10/4)
Length of Visible Light 12h 31m
Length of Day
11h 37m
Waning Gibbous, 82% of the Moon is Illuminated
Oct 4
Waning Gibbous
Oct 8
Last Quarter
Oct 15
New
Oct 21
First Quarter
Oct 29
Full

Hourly Weather History & Observations

Time (EDT) Temp. Dew Point Humidity Pressure Visibility Wind Dir Wind Speed Gust Speed Precip Events Conditions
12:53 AM 63.0 °F 61.0 °F 93% 30.14 in 10.0 mi Calm Calm - N/A   Overcast
1:53 AM 62.1 °F 61.0 °F 96% 30.14 in 8.0 mi Calm Calm - N/A   Mostly Cloudy
2:53 AM 63.0 °F 61.0 °F 93% 30.14 in 8.0 mi Calm Calm - N/A   Overcast
3:53 AM 63.0 °F 61.0 °F 93% 30.13 in 10.0 mi Calm Calm - N/A   Overcast
4:53 AM 62.1 °F 61.0 °F 96% 30.15 in 8.0 mi Calm Calm - N/A   Overcast
5:53 AM 63.0 °F 61.0 °F 93% 30.16 in 8.0 mi Calm Calm - 0.01 in   Overcast
6:53 AM 62.1 °F 61.0 °F 96% 30.18 in 8.0 mi Calm Calm - N/A   Mostly Cloudy
7:53 AM 61.0 °F 60.1 °F 97% 30.19 in 7.0 mi Calm Calm - N/A   Mostly Cloudy
8:53 AM 63.0 °F 61.0 °F 93% 30.20 in 10.0 mi Calm Calm - N/A   Overcast
9:53 AM 66.0 °F 61.0 °F 84% 30.20 in 10.0 mi Variable 3.5 mph - N/A   Mostly Cloudy
10:53 AM 66.9 °F 57.9 °F 73% 30.22 in 10.0 mi WSW 5.8 mph - N/A   Clear
11:53 AM 70.0 °F 57.0 °F 63% 30.21 in 10.0 mi Variable 6.9 mph - N/A   Scattered Clouds
12:53 PM 69.1 °F 54.0 °F 58% 30.20 in 9.0 mi West 6.9 mph - N/A   Mostly Cloudy
1:53 PM 72.0 °F 52.0 °F 49% 30.18 in 9.0 mi West 9.2 mph 16.1 mph N/A   Unknown
2:53 PM 73.0 °F 51.1 °F 46% 30.16 in 10.0 mi WSW 10.4 mph - N/A   Scattered Clouds
3:53 PM 72.0 °F 48.9 °F 44% 30.16 in 10.0 mi WNW 10.4 mph 17.3 mph N/A   Partly Cloudy
4:53 PM 71.1 °F 50.0 °F 47% 30.15 in 9.0 mi West 6.9 mph - N/A   Mostly Cloudy
7:53 PM 64.4 °F 53.6 °F 68% 30.18 in 10.0 mi Calm Calm - N/A   Clear
9:53 PM 59.0 °F 53.6 °F 82% 30.19 in 10.0 mi Calm Calm - N/A   Clear